Gastonia, NC

10:49 AM EDT on August 17, 2017 (GMT -0400)
Gastonia Municipal

Weather History for KAKH - October, 2012

Change the Weather History Date:

Saturday, October 6, 2012

  Actual Average (KCLT) Record (KCLT)
Temperature  
Mean Temperature 69 °F -  
Max Temperature 82 °F 75 °F 98 °F (1954)
Min Temperature 57 °F 52 °F 38 °F (1935)
Cooling Degree Days 4    
Growing Degree Days 19 (Base 50)    
Moisture  
Dew Point 60 °F    
Average Humidity 86    
Maximum Humidity 100    
Minimum Humidity 47    
Precipitation  
Precipitation 0.12 in - - ()
Sea Level Pressure  
Sea Level Pressure 29.96 in    
Wind  
Wind Speed 1 mph (NE)    
Max Wind Speed 9 mph    
Max Gust Speed -    
Visibility 6 miles    
Events Fog , Rain    
Averages and records for this station are not official NWS values.
T = Trace of Precipitation, MM = Missing Value Source: NWS Daily Summary

Daily Weather History Graph

Daily Weather History Graph

Search for Another Location

Airport or City:

Trip Planner

Search our weather history database for the weather conditions in past years. The results will help you decide how hot, cold, wet, or windy it might be!

Date:

Astronomy

Oct. 06, 2012 Rise Set
Actual Time 7:23 AM EDT 7:00 PM EDT
Civil Twilight 6:58 AM EDT 7:26 PM EDT
Nautical Twilight 6:28 AM EDT 7:55 PM EDT
Astronomical Twilight 5:59 AM EDT 8:24 PM EDT
Moon 11:24 PM EDT (10/6) 1:07 PM EDT (10/6)
Length of Visible Light 12h 27m
Length of Day
11h 37m
Waning Gibbous, 65% of the Moon is Illuminated
Oct 6
Waning Gibbous
Oct 8
Last Quarter
Oct 15
New
Oct 21
First Quarter
Oct 29
Full

Hourly Weather History & Observations

Time (EDT) Temp. Heat Index Dew Point Humidity Pressure Visibility Wind Dir Wind Speed Gust Speed Precip Events Conditions
12:54 AM 60.1 °F - 59.0 °F 96% 30.02 in 6.0 mi Calm Calm - N/A   Clear
1:54 AM 60.1 °F - 59.0 °F 96% 30.01 in 5.0 mi Calm Calm - N/A   Clear
2:54 AM 59.0 °F - 57.9 °F 96% 29.99 in 5.0 mi Calm Calm - N/A   Clear
3:54 AM 57.9 °F - 57.9 °F 100% 29.97 in 4.0 mi Calm Calm - N/A   Clear
4:54 AM 57.9 °F - 57.0 °F 97% 29.96 in 3.0 mi Calm Calm - N/A   Clear
5:23 AM 57.2 °F - 57.2 °F 100% 29.97 in 2.0 mi Calm Calm - N/A   Clear
5:35 AM 57.2 °F - 57.2 °F 100% 29.97 in 3.0 mi Calm Calm - N/A   Clear
5:54 AM 59.0 °F - 57.9 °F 96% 29.96 in 4.0 mi Calm Calm - N/A   Clear
6:15 AM 57.2 °F - 57.2 °F 100% 29.98 in 2.5 mi Calm Calm - N/A   Clear
6:54 AM 57.0 °F - 57.0 °F 100% 29.98 in 2.0 mi Calm Calm - N/A   Clear
7:02 AM 57.2 °F - 57.2 °F 100% 29.98 in 1.8 mi Calm Calm - N/A   Clear
7:14 AM 57.2 °F - 57.2 °F 100% 29.99 in 2.5 mi Calm Calm - N/A   Clear
7:27 AM 57.2 °F - 55.4 °F 94% 29.99 in 1.2 mi Calm Calm - N/A   Clear
7:46 AM 57.2 °F - 57.2 °F 100% 29.99 in 0.8 mi Calm Calm - N/A   Mist
7:54 AM 57.9 °F - 57.0 °F 97% 29.98 in 0.2 mi Variable 3.5 mph - N/A Fog Fog
8:02 AM 59.0 °F - 57.2 °F 94% 29.99 in 1.2 mi Variable 5.8 mph - N/A   Partly Cloudy
8:06 AM 59.0 °F - 59.0 °F 100% 29.99 in 3.0 mi Calm Calm - N/A   Partly Cloudy
8:19 AM 59.0 °F - 59.0 °F 100% 30.00 in 2.5 mi Calm Calm - N/A   Clear
8:29 AM 60.8 °F - 60.8 °F 100% 30.00 in 4.0 mi Calm Calm - N/A   Clear
8:54 AM 62.1 °F - 61.0 °F 96% 29.99 in 6.0 mi Calm Calm - N/A   Clear
9:54 AM 66.9 °F - 62.1 °F 84% 29.98 in 10.0 mi SW 3.5 mph - N/A   Clear
10:54 AM 71.1 °F - 62.1 °F 73% 29.96 in 10.0 mi South 4.6 mph - N/A   Clear
11:54 AM 75.0 °F - 61.0 °F 62% 29.96 in 10.0 mi WSW 3.5 mph - N/A   Clear
12:54 PM 78.1 °F - 60.1 °F 54% 29.95 in 10.0 mi Variable 4.6 mph - N/A   Clear
1:54 PM 80.1 °F 80.6 °F 57.9 °F 47% 29.92 in 10.0 mi Variable 4.6 mph - N/A   Clear
2:54 PM 81.0 °F 81.3 °F 59.0 °F 47% 29.91 in 10.0 mi Variable 5.8 mph - N/A   Partly Cloudy
3:54 PM 80.1 °F 80.9 °F 60.1 °F 50% 29.89 in 10.0 mi Calm Calm - N/A   Scattered Clouds
4:54 PM 80.1 °F 80.9 °F 60.1 °F 50% 29.89 in 10.0 mi Calm Calm - N/A   Mostly Cloudy
5:54 PM 75.9 °F - 62.1 °F 62% 29.90 in 10.0 mi Calm Calm - N/A   Scattered Clouds
6:54 PM 72.0 °F - 66.0 °F 81% 29.91 in 10.0 mi Calm Calm - N/A   Overcast
7:54 PM 70.0 °F - 64.0 °F 81% 29.94 in 4.0 mi Variable 4.6 mph - 0.06 in Rain Heavy Rain
8:54 PM 68.0 °F - 64.9 °F 90% 29.95 in 6.0 mi NE 6.9 mph - 0.03 in Rain Light Rain
9:54 PM 66.9 °F - 64.9 °F 93% 29.94 in 9.0 mi NE 5.8 mph - 0.01 in   Mostly Cloudy
10:54 PM 66.9 °F - 64.0 °F 90% 29.98 in 10.0 mi NNE 9.2 mph - 0.01 in Rain Light Rain
11:54 PM 63.0 °F - 61.0 °F 93% 29.97 in 10.0 mi ENE 8.1 mph - 0.01 in   Scattered Clouds